This is the latest recevied weather packets stored in our database for station/object HA3YA-WX. If no packets are shown the sender has not sent any weather packets the latest 10 day(s).
| Time | Temp. | Humidity | Pressure | Rain* | Wind** | Luminosity | Snow |
|---|---|---|---|---|---|---|---|
| 1776947989 | 21.11° C | 35% | 1004 hPa | - | - | - | - |
| 1776947388 | 21.11° C | 35% | 1004 hPa | - | - | - | - |
| 1776946788 | 20.56° C | 36% | 1004.6 hPa | - | - | - | - |
| 1776946188 | 20.56° C | 36% | 1004.6 hPa | - | - | - | - |
| 1776945589 | 20.56° C | 36% | 1004 hPa | - | - | - | - |
| 1776944989 | 20° C | 36% | 1004 hPa | - | - | - | - |
| 1776944389 | 20° C | 37% | 1004 hPa | - | - | - | - |
| 1776943788 | 19.44° C | 36% | 1005.2 hPa | - | - | - | - |
| 1776943188 | 20° C | 38% | 1005.2 hPa | - | - | - | - |
| 1776942589 | 19.44° C | 38% | 1005 hPa | - | - | - | - |
| 1776941988 | 18.89° C | 40% | 1005 hPa | - | - | - | - |
| 1776941388 | 18.33° C | 39% | 1005 hPa | - | - | - | - |
| 1776940788 | 18.33° C | 39% | 1005.7 hPa | - | - | - | - |
| 1776940188 | 19.44° C | 38% | 1005.7 hPa | - | - | - | - |
| 1776939589 | 20° C | 39% | 1005.7 hPa | - | - | - | - |
| 1776938988 | 20° C | 39% | 1006 hPa | - | - | - | - |
| 1776938388 | 19.44° C | 39% | 1006 hPa | - | - | - | - |
| 1776937789 | 18.33° C | 40% | 1006 hPa | - | - | - | - |
| 1776937188 | 17.78° C | 41% | 1006 hPa | - | - | - | - |
| 1776936588 | 17.78° C | 42% | 1006.6 hPa | - | - | - | - |
| 1776935989 | 17.78° C | 42% | 1006 hPa | - | - | - | - |
| 1776935388 | 17.22° C | 44% | 1006 hPa | - | - | - | - |
| 1776934789 | 17.22° C | 44% | 1006 hPa | - | - | - | - |
| 1776934188 | 17.22° C | 45% | 1007 hPa | - | - | - | - |
| 1776933589 | 16.67° C | 46% | 1007 hPa | - | - | - | - |
* Rain since midnight (hover to see other rain measurements)
** Current wind speed in m/s (hover to see current wind gust speed)